OpenBCM V1.13 (Linux)

Packet Radio Mailbox

DB0FHN

[JN59NK Nuernberg]

 Login: GUEST





  
I6KZR  > KEPLER   03.01.03 21:21l 317 Lines 15753 Bytes #999 (0) @ WW
BID : 16154_IK6WID
Read: DB0FHN GUEST
Subj: 2L Keplerian Elements #003
Path: DB0FHN<DB0RGB<OK0PPL<RZ6HXA<SP7MGD<IK6PYS<I6ZLO<IK6WID
Sent: 030103/1912Z @:IK6WID.#AP.IMAR.ITA.EU #:16154 [MONTE URANO]  FBB7.00i
From: I6KZR@IK6WID.#AP.IMAR.ITA.EU
To  : KEPLER@WW


OSCAR 7
1 07530U 74089B   03001.72787133 -.00000029 +00000-0 +10000-3 0 01397
2 07530 101.7696 049.9504 0012389 170.1414 189.9901 12.53563184287191
GOES 2
1 10061U 77048A   02359.35983672 -.00000305  00000-0  00000+0 0   322
2 10061  14.1180  13.8737 0014065 196.4899 163.4904  0.99401889 38282
GOES 3
1 10953U 78062A   03001.07118427 -.00000097 +00000-0 +00000-0 0 08766
2 10953 013.3873 017.5997 0004450 337.9098 022.0760 01.00277581043011
GOES 6
1 14050U 83041A   02365.19374659  .00000058  00000-0  10000-3 0  4099
2 14050  10.3375  35.7955 0002757 356.3386   3.6439  1.00286901130141
OSCAR 10
1 14129U 83058B   03002.77971805  .00000262  00000-0  10000-3 0  9084
2 14129  25.8491 172.1062 6046087 315.8046   9.2082  2.05865954119102
OSCAR 11 (UoSAT 2)
1 14781U 84021B   03002.55730509  .00001954  00000-0  27906-3 0   341
2 14781  98.1112 336.1464 0009792   9.2339 350.9045 14.77844021  9299
NOAA 10
1 16969U 86073A   03001.94078576 +.00000292 +00000-0 +13820-3 0 06699
2 16969 098.7260 356.1650 0011752 224.7270 135.2963 14.27043840847114
GOES 7
1 17561U 87022A   02355.38651376  .00000102  00000-0  10000-3 0  7897
2 17561   7.4944  55.8496 0008079 326.4312  34.0198  1.00298198 41156
COSMOS 1861
1 18129U 87054A   03003.51703384  .00000081  00000-0  72099-4 0  1826
2 18129  82.9234 180.6058 0012317   2.0421 358.0764 13.72695658778199
EUTELSAT 1-F4 (ECS 4)
1 18351U 87078B   02352.12522730 -.00000062  00000-0  10000-3 0   233
2 18351   7.0733  58.7527 0004962 184.4653 172.0391  0.96710043 42061
NOAA 11
1 19531U 88089A   03001.97815878  .00000258  00000-0  15756-3 0  4514
2 19531  98.9082  83.5044 0011567 341.6557  18.4196 14.14513716736077
ASTRA 1A
1 19688U 88109B   02364.86148297  .00000041  00000-0  10000-3 0  5511
2 19688   1.2492  96.7833 0003014 182.8793 134.7898  1.00272573 31690
OSCAR 14 (UOSAT 3)
1 20437U 90005B   03002.16945455  .00000172  00000-0  80552-4 0  1327
2 20437  98.2794  48.0314 0010968 348.0544  12.0375 14.31220415675716
OSCAR 15 (UOSAT 4)
1 20438U 90005C   03001.66491978 +.00000158 +00000-0 +76759-4 0 07669
2 20438 098.2537 036.8871 0010359 001.0685 359.0518 14.30184041675313
OSCAR 16 (PACSAT)
1 20439U 90005D   03001.70279447 +.00000194 +00000-0 +88812-4 0 08350
2 20439 098.3256 058.9882 0011425 355.6186 004.4880 14.31450481675687
OSCAR 17 (DOVE)
1 20440U 90005E   03002.19017929  .00000278  00000-0  11991-3 0  7176
2 20440  98.3450  63.2392 0011365 352.9991   7.1020 14.31727633675825
OSCAR 18 (WEBERSAT)
1 20441U 90005F   03001.96592240 +.00000265 +00000-0 +11523-3 0 09927
2 20441 098.3424 062.2649 0011724 354.9291 005.1776 14.31533893675778
OSCAR 19 (LUSAT)
1 20442U 90005G   03002.22930952  .00000248  00000-0  10848-3 0  9306
2 20442  98.3551  65.4555 0012050 352.4333   7.6662 14.31695970675860
JAS 1B (FUJI 2)
1 20480U 90013C   03001.99101090  .00000000  00000-0  64431-4 0  4526
2 20480  99.0398 333.7042 0540942 111.5775 254.3847 12.83327462604413
HST
1 20580U 90037B   03003.18006837  .00002053  00000-0  15810-3 0  2848
2 20580  28.4686 339.3888 0004382 139.0391 326.0356 14.97604525495675
EUTELSAT 2-F1
1 20777U 90079B   02363.88046470 -.00000118  00000-0  10000-3 0    96
2 20777   3.3773  85.0294 0001628 236.2766 169.8068  1.00384072 25599
FENGYUN 1B
1 20788U 90081A   03003.50729979  .00000447  00000-0  32087-3 0  8499
2 20788  99.0208 346.1513 0015803 358.3397   1.7713 14.02137197631085
EUTELSAT 2-F2
1 21056U 91003B   02363.89428382  .00000128  00000-0  10000-3 0  6032
2 21056   2.6092  88.4131 0002415 217.3203 162.7392  1.00269142 31379
INFORMATOR 1
1 21087U 91006A   03001.96562681 +.00000074 +00000-0 +61176-4 0 06107
2 21087 082.9413 352.6596 0036736 024.7016 335.5889 13.74921355598348
COSMOS 2123
1 21089U 91007A   03001.85684927 +.00000045 +00000-0 +30765-4 0 04911
2 21089 082.9239 216.7761 0030885 059.5295 300.8903 13.74398696597239
ASTRA 1B
1 21139U 91015A   02364.00000000  .00000128  00000-0  10000-3 0  1567
2 21139   0.0122 319.8851 0002995  65.1991  92.3752  1.00273184 31686
METEOSAT 5 (MOP 2)
1 21140U 91015B   03001.79588238 +.00000014 +00000-0 +10000-3 0 06590
2 21140 005.5239 070.2571 0001079 154.6659 225.7305 01.00278351045571
NOAA 12
1 21263U 91032A   03001.95002355 +.00000521 +00000-0 +24081-3 0 09729
2 21263 098.6205 352.3999 0012929 156.6568 203.5199 14.25046840604436
OSCAR 22 (UoSAT 5)
1 21575U 91050B   03001.95155605 +.00000485 +00000-0 +17007-3 0 06964
2 21575 098.1365 356.4914 0006455 280.5005 079.5455 14.39119171601432
METEOR 3-5
1 21655U 91056A   03001.96413223 +.00000051 +00000-0 +10000-3 0 04900
2 21655 082.5577 072.5042 0012894 322.3703 037.6516 13.16977571547213
UARS
1 21701U 91063B   03001.73475913 +.00000937 +00000-0 +88507-4 0 07891
2 21701 056.9806 225.6454 0006746 110.2170 249.9525 15.02748158618529
EUTELSAT 2-F3
1 21803U 91083A   02364.03689237 +.00000134 +00000-0 +10000-3 0 05042
2 21803 002.4714 089.6383 0002540 211.8649 191.4787 01.00269107036498
INMARSAT 2-F3
1 21814U 91084B   02365.27697718 +.00000116 +00000-0 +10000-3 0 05922
2 21814 001.7179 057.6096 0002442 208.2427 151.4178 01.00275531040402
INMARSAT 2-F4
1 21940U 92021B   03001.45733081 -.00000351 +00000-0 +10000-3 0 05603
2 21940 002.3392 018.5578 0001957 245.9905 109.7364 01.00267479039195
EUTELSAT 2-F4
1 22028U 92041B   02365.09071760 -.00000094  00000-0  10000-3 0  3112
2 22028   1.5937  93.1263 0005707 208.0581 178.4586  1.00271830 31283
OSCAR 23 (KITSAT 1)
1 22077U 92052B   03002.22174896 -.00000037  00000-0  10000-3 0  1447
2 22077  66.0864 224.8821 0014747 284.4874  75.4507 12.86407130488210
ASTRA 1C
1 22653U 93031A   02364.00000000  .00000128  00000-0  10000-3 0  7824
2 22653   0.0122 319.8851 0002995  65.1991  92.3588  1.00273184 30381
METEOR 2-21
1 22782U 93055A   03003.32243431  .00000167  00000-0  13755-3 0  4826
2 22782  82.5489 251.5753 0023611 114.1910 246.1750 13.83526809471694
KITSAT B
1 22825U 93061C   03003.53772057  .00000178  00000-0  86768-4 0  4530
2 22825  98.2792  35.5733 0009301  40.1624 320.0244 14.28925449483305
POSAT 1
1 22826U 93061D   03001.61481073 +.00000235 +00000-0 +10890-3 0 03123
2 22826 098.2812 034.8396 0009887 043.5869 316.6087 14.29146134483070
ITAMSAT
1 22828U 93061F   03001.60663665 +.00000225 +00000-0 +10389-3 0 03912
2 22828 098.2752 035.0947 0010719 023.5768 336.5895 14.29491284451276
EYESAT A
1 22829U 93061G   03003.51393524  .00000250  00000-0  11318-3 0  4168
2 22829  98.2789  37.4904 0010398  19.0201 341.1373 14.29742475483472
METEOSAT 6
1 22912U 93073B   03002.78904515  .00000060  00000-0  00000+0 0  6196
2 22912   2.5619  82.6410 0001015 137.6720 175.0913  1.00267436 31824
GOES 8
1 23051U 94022A   02364.29789727 -.00000242  00000-0  00000+0 0  5404
2 23051   0.4925 100.2377 0002373 159.7927 230.9121  1.00263661 39306
ASTRA 1D
1 23331U 94070A   03001.92365742  .00000142  00000-0  00000+0 0  7976
2 23331   0.0606 207.8620 0004882  23.6325 226.3824  1.00273040 30393
RADIO ROSTO
1 23439U 94085A   03003.43978922 -.00000041  00000-0  33074-4 0  6722
2 23439  64.8140 116.0743 0148180 124.2421 237.2637 11.27548341330390
NOAA 14
1 23455U 94089A   03001.97001596 +.00000208 +00000-0 +13604-3 0 05274
2 23455 099.1884 019.2845 0009471 007.8886 352.2432 14.13278135412752
HIMAWARI 5 (GMS 5)
1 23522U 95011B   03001.11435623 -.00000277 +00000-0 +00000-0 0 00335
2 23522 001.6318 083.4217 0000856 090.1843 108.1055 01.00274215028400
HOT BIRD 1
1 23537U 95016B   02364.09542247  .00000091  00000-0  10000-3 0  5315
2 23537   0.1178  62.3444 0060331 260.0229 182.7219  1.00272908 28465
GOES 9
1 23581U 95025A   03002.82272001  .00000029  00000-0  00000+0 0  4543
2 23581   0.4021 277.4457 0008617 229.0298 133.5093  1.00029855 27898
INMARSAT 3-F1
1 23839U 96020A   02362.74878715  .00000025  00000-0  00000+0 0  8414
2 23839   0.0618  18.2214 0005592 221.8028 190.5550  1.00274532 24694
ASTRA 1F
1 23842U 96021A   02364.00000000  .00000128  00000-0  10000-3 0  5555
2 23842   0.0122 319.8851 0002995  65.1991  92.4014  1.00273184 24616
JAS 2
1 24278U 96046B   03002.50555677 -.00000022  00000-0  15636-4 0  5506
2 24278  98.5309 160.1332 0350903 338.6447  20.0347 13.52867788314942
UNAMSAT
1 24305U 96052B   03001.91672045 +.00000205 +00000-0 +20364-3 0 06682
2 24305 082.9345 298.0220 0030430 339.5200 020.4725 13.73445333316941
INMARSAT 3-F2
1 24307U 96053A   02365.27116899 -.00000117  00000-0  00000+0 0   640
2 24307   0.0479  30.0937 0004704 249.5898 261.9372  1.00270574 23124
HOT BIRD 2
1 24665U 96067A   02364.09542247  .00000096  00000-0  10000-3 0  3374
2 24665   0.0380 203.9859 0010678  49.4036 252.3771  1.00274592 22753
INMARSAT 3-F3
1 24674U 96070A   03001.47477817 +.00000043 +00000-0 +10000-3 0 09591
2 24674 000.0509 358.4031 0004289 274.2598 177.0430 01.00273070022100
GOES 10
1 24786U 97019A   03002.64660657  .00000090  00000-0  00000+0 0  4856
2 24786   0.0255 100.9396 0002784 220.3986 237.8362  1.00274800 20869
INMARSAT 3-F4
1 24819U 97027A   03003.24007652 -.00000286  00000-0  10000-3 0  8621
2 24819   0.0230 310.9609 0003657 339.7498 204.1763  1.00269822 20547
FENGYUN 2A
1 24834U 97029A   02363.87585822 -.00000191  00000-0  00000+0 0  9415
2 24834   2.4466  88.8933 0001931 238.4439 172.5930  1.00268131 20338
HOT BIRD 3
1 24931U 97049A   02364.09542247  .00000095  00000-0  10000-3 0  4180
2 24931   0.0070 329.5839 0008855 285.9646 250.1886  1.00273530 19576
METEOSAT 7
1 24932U 97049B   02362.83210071 +.00000005 +00000-0 +00000-0 0 02206
2 24932 000.1072 018.3543 0001224 231.1370 147.1122 01.00270373019508
ASTRA 1G
1 25071U 97076A   02364.00000000  .00000128  00000-0  10000-3 0  3864
2 25071   0.0122 319.8851 0002995  65.1991  92.3633  1.00273184 18633
